STTW-5

导读 | 星芒AI

STTW-5 是一颗由中国研制的遥感卫星,主要用于地球观测和环境监测。该卫星具备高分辨率成像能力,能够提供清晰的地表图像,支持资源调查、灾害预警和城市规划等多个领域。它搭载了先进的光学传感器,具备多光谱和全色成像功能,提升了数据获取的精度和效率。STTW-5 的成功发射,进一步增强了我国在遥感技术领域的自主创新能力,为国家的可持续发展和空间科学研究提供了有力支撑。

基本信息
目录编号:
21833
目录名称:
STTW-5
国际标识:
1991-088A
轨道中心:
EARTH
卫星名称:
STTW-5
卫星全名:
--
卫星状态:
在轨 (已飞行12406 天)
发射日期:
1991-12-28 UTC
国别 :
中国 (CN)
星等 :
--
轨道信息
数据来源 国际轨道数据 AOE轨道数据
星历时间 2025-12-14T22:01:45+0800
1天前
查看轨道信息
2025-12-12T20:00:00+0800
3天前
查看轨道信息
半长轴 24409.544km 24409.516km
偏心率 0.6599382 0.6599752
轨道倾角 31.412° 31.407°
近地点辐角 140.200° 139.407°
升交点赤经 110.677° 111.197°
平近点角 294.288° 25.928°
近地点 1922.618km 1921.705km
远地点 34140.2km 34141.057km
周期 632.556分钟 632.555分钟
每日圈数 2.276477 2.276481
详细信息
使用方式:
暂无
2D轨道图
3D轨道图
轨道高度分析图
轨道倾角分析图
轨道综合分析图
查看轨道综合分析图